sat.trackr.live / text

‹ back to catalog

STARLINK-35082

NORAD 65392 · 2025-191P

PAYLOAD ACTIVE UNKNOWN

§ Identity

Operator
Country
US
Launch date
2025-08-30
Launch site
AFWTR
Launch vehicle
Mass (kg)
RCS (m²)

Purposes: comms

External: N2YO · Heavens-Above · Gunter

§ Orbital elements

Epoch: 2026-09-20T13:19:44.081184Z

Period
93.91 min
Inclination
97.2890°
Eccentricity
0.0000615
Mean motion
15.33450488 rev/d
Perigee alt
465.1 km
Apogee alt
465.9 km
Semi-major
6,843.7 km
B*
4.2311e-4
RAAN
129.5342°
Arg perigee
90.6719°
Mean anomaly
269.4594°
Rev number
5,964

§ Raw data

STARLINK-350821 65392U 25191P   26263.55537131  .00013611  00000+0  42311-3 0  99972 65392  97.2890 129.5342 0000615  90.6719 269.4594 15.33450488 59646

JSON: /api/v1/satellites/65392 · /tle

For live sub-satellite position, see the globe view (requires WebGL).

§ Visibility from observer

Set your observer location to see the next 7 days of passes ≥ 10°. The values pass through the URL so the page stays shareable.

No JS? Fill the form by hand. The geolocation button needs JavaScript.